Other Public Products
Issued by NWS Grand Forks, ND

Home | Current Version | Previous Version | Graphics & Text | Print | Product List | Glossary On
Versions: 1 2 3 4 5 6 7 8 9 10 11 12 13 14 15 16 17 18 19 20 21 22 23 24 25 26 27 28 29 30 31 32 33 34 35 36 37 38 39 40 41 42 43 44 45 46 47 48 49 50
000
FPUS83 KFGF 100810
OPUFGF
PRAIRIE TO PINES WEATHER ROUNDUP
NATIONAL WEATHER SERVICE EASTERN NORTH DAKOTA/GRAND FORKS ND
200 AM CST SAT DEC 10 2016

 **SATELLITE DATA USED TO AUGMENT SKY COVER AT AUTOMATED STATIONS**
 *****  WEATHER ACROSS EASTERN NORTH DAKOTA  *****

CITY           SKY/WX    TMP DP  RH WIND       PRES   REMARKS
GRAND FORKS    CLOUDY    -3  -8  79 NW6       30.55S WCI -15
GRAND FORKS AF CLOUDY    -3 -10  72 N7        30.54S WCI -17
GRAND CITY NWS NOT AVBL
BUXTON         NOT AVBL
DEVILS LAKE    CLOUDY   -17 -22  78 NW5       30.48F WCI -30
FARGO          CLOUDY    -8 -14  74 W5        30.55F WCI -19
WAHPETON ARPT  SUNNY     -8 -15  71 NW9       30.56R WCI -25
$$

 *****  WEATHER ACROSS CENTRAL AND WESTERN NORTH DAKOTA  *****

CITY           SKY/WX    TMP DP  RH WIND       PRES   REMARKS
JAMESTOWN      CLOUDY   -15 -19  82 NW6       30.47F WCI -29
BISMARCK       CLOUDY   -16 -21  78 E6        30.48S WCI -31
MINOT          CLOUDY   -17 -21  82 SW8       30.44S WCI -35
MINOT AFB      CLOUDY   -23 -30  72 W7        30.44S WCI -41
GARRISON         N/A    -18 -23  77 N5        30.41F WCI -31
WILLISTON      CLOUDY   -15 -19  82 NE3       30.39F
DICKINSON      CLOUDY    -9 -14  78 SE6       30.29F WCI -22
HETTINGER      CLOUDY    -7 -10  87 SE6       30.29F WCI -20
$$

 *****  OTHER OBSERVATIONS NORTHEAST NORTH DAKOTA  *****

CITY           SKY/WX    TMP DP  RH WIND       PRES   REMARKS
WALHALLA         N/A    -11 -11 100 W5        30.54F WCI -23
LANGDON        FAIR     -17 -22  76 W5        30.45F WCI -29
CAVALIER         N/A    -11 -17  77 W3        30.54F
GRAFTON        CLOUDY    -6 -11  77 NW9       30.58S WCI -22
CANDO          FAIR     -17 -20  83 CALM      30.50F
FORT TOTTEN      N/A    -20 -26  72 CALM      29.95S
ROLLA          FAIR     -20 -27  69 NW5       30.42F WCI -33
RUGBY            N/A    -20 -27  69 CALM      30.46F
 ***** THE ABOVE OBSERVATIONS ARE NON NWS ARE NOT QUALITY
        CONTROLLED AND MAY MIS-REPORT RAIN FOR SNOW...
$$

 *****  OTHER OBSERVATIONS SOUTHEAST NORTH DAKOTA *****

CITY           SKY/WX    TMP DP  RH WIND       PRES   REMARKS
COOPERSTOWN    PTSUNNY  -15 -20  76 NW8       30.48F WCI -32
VALLEY CITY    FAIR     -15 -18  84 NW6       30.51F WCI -29
OAKES          NOT AVBL
GWINNER        FAIR      -8 -13  77 NW8       30.51F WCI -23
SHEYENNE NWR     N/A    -13 -21  67 W5        29.95S WCI -25
BUFFALO        NOT AVBL
WYNDMERE       NOT AVBL
 ***** THE ABOVE OBSERVATIONS ARE NON NWS ARE NOT QUALITY
       CONTROLLED AND MAY MIS-REPORT RAIN FOR SNOW...
$$

  *****  WEATHER ACROSS NORTHERN MINNESOTA  *****

CITY           SKY/WX    TMP DP  RH WIND       PRES   REMARKS
FLAG ISLAND    CLEAR     -4  -8  84 W10       30.44F WCI -21
WARROAD        CLEAR     -9 -15  77 W3        30.47S
ROSEAU         PTCLDY    -8 -11  84 W6        30.49S WCI -21
HALLOCK        CLOUDY    -6 -11  77 NW8       30.54F WCI -21
THF RVR FALLS  FLURRIES  -7 -11  83 NW5       30.50F WCI -18
HALSTAD          N/A     -9 -13  83 CALM        N/A
FOSSTON        CLOUDY   -15 -18  84 CALM      30.48F
BAUDETTE       CLEAR     -8 -12  83 W8        30.44S WCI -24
WASKISH        CLOUDY     0  -8  71 NW8       30.45S WCI -15
CROOKSTON      FLURRIES  -4  -8  84 W5        30.55R WCI -15
$$
  *****  WEATHER ACROSS CENTRAL AND WEST MINNESOTA  *****

CITY           SKY/WX    TMP DP  RH WIND       PRES   REMARKS
BEMIDJI        CLOUDY    -3  -8  78 W7        30.45S WCI -17
PARK RAPIDS    CLOUDY    -2 -10  69 W9        30.45R WCI -18
WADENA         CLOUDY    -4  -9  77 NW6       30.46F WCI -16
DETROIT LAKES  CLOUDY    -8  -9  92 NW5       30.48S WCI -19
MOORHEAD       CLOUDY    -9 -15  77 W3        30.55S
FERGUS FALLS   CLOUDY   -11 -15  84 NW6       30.58R WCI -25
ELBOW LAKE     FAIR      -8 -11  84 W8        30.51S WCI -24
MORRIS MN      CLEAR     -6  -9  84 NW6       30.51S WCI -18
STAPLES        NOT AVBL
WHEATON        CLEAR     -6  -9  84 W6        30.56F WCI -18
$$
  *****  WEATHER ELSEWHERE ACROSS MINNESOTA  *****

CITY           SKY/WX    TMP DP  RH WIND       PRES   REMARKS
DULUTH         CLOUDY     5   0  79 NW7       30.40R HAZE    WCI  -7
INTRNTL FALLS  CLEAR     -6 -10  83 W5        30.43S WCI -17
ELY            CLOUDY     0  -6  78 W7        30.38F WCI -13
CLOQUET        CLOUDY     7  -2  66 NW7       30.42R WCI  -5
BRAINERD       CLOUDY     3  -4  72 NW7       30.46S WCI  -9
HIBBING        MIX PCPN   1  -5  75 N10       30.42R WCI -15
ALEXANDRIA     CLEAR     -4  -8  83 NW5       30.47F WCI -15
SAINT CLOUD    CLEAR      1  -2  87 NW6       30.49S WCI -10
MINNEAPOLIS    PTCLDY     7  -1  70 W7        30.51S WCI  -5
$$

  *****  WEATHER ACROSS SOUTH DAKOTA  *****

CITY           SKY/WX    TMP DP  RH WIND       PRES   REMARKS
SIOUX FALLS    CLOUDY    10   6  84 NE8       30.45F WCI  -2
BROOKINGS      FLURRIES   3  -3  76 NE8       30.43F WCI -10
WATERTOWN      CLOUDY    -5  -8  87 CALM      30.43F
HURON          CLEAR      1  -2  87 NW7       30.51R WCI -12
SISSETON         N/A     -8 -13  78 N6        30.52F WCI -21
ABERDEEN       CLOUDY    -7 -15  68 CALM      30.52F
MITCHELL       CLOUDY     7   2  80 N7        30.50S WCI  -5
PIERRE         CLOUDY    -3  -9  75 NE8       30.42F WCI -18
MOBRIDGE       CLOUDY    -6 -12  75 E7        30.41F WCI -20
RAPID CITY     LGT SNOW   3  -2  79 SE15      30.18F WCI -16
$$

  *****  SOME WEATHER IN NEARBY STATES *****

CITY           SKY/WX    TMP DP  RH WIND       PRES   REMARKS
GLASGOW MT     CLOUDY    -5 -10  79 E12       30.23F WCI -23
GREAT FALLS MT CLOUDY     0  -3  87 CALM      29.94F
CHEYENNE WY    CLOUDY    25  19  78 SW8       30.01F WCI  16
SCOTTSBLUFF NE CLOUDY    15   8  73 E15       30.06F WCI   0
OMAHA NE       CLOUDY    23  12  62 SE6       30.48F WCI  16
DES MOINES IA  CLOUDY    23  12  62 CALM      30.51F
DAVENPORT IA   CLOUDY    19  14  81 W7        30.53S WCI  10
CHICAGO IL     CLOUDY    19  11  70 W12       30.50S WCI   7
EAU CLAIRE WI  CLOUDY    13   5  70 W8        30.46R WCI   2
LA CROSSE WI   PTCLDY    14   7  73 W9        30.50R WCI   2
$$

  *****  SOME NATIONAL WEATHER *****

CITY           SKY/WX    TMP DP  RH WIND       PRES   REMARKS
LA GUARDIA NY  PTCLDY    32  16  51 NW15G22   30.32R WCI  22
RALEIGH NC     CLEAR     24  15  68 CALM      30.52R
ATLANTA GA     CLEAR     29  18  63 NW7       30.46S WCI  22
NEW ORLEANS LA CLEAR     42  26  53 NE10      30.51S
OKLAHOMA CITY  CLOUDY    33  17  51 S10       30.41F WCI  25
ALBUQUERQUE NM CLOUDY    32  24  72 CALM      30.28F
SALT LAKE CITY CLOUDY    33  30  88 NW3       30.02F
LOS ANGELES CA CLOUDY    59  57  93 NE6       30.18S FOG
BOISE ID       CLOUDY    32  30  92 E5        29.94F FOG
SEATTLE WA     LGT RAIN  36  34  92 SE9       29.82S
$$

*** WEATHER ACROSS MANITOBA...SASKATCHEWAN AND ONTARIO ***
                ***ONTARIO***

CITY           SKY/WX    TMP DP  RH WIND       PRES   REMARKS
GERALDTON      FLURRIES  -2  -6  84 W5        30.29S WCI -12
THUNDER BAY    CLOUDY    10   0  61 NW10      30.39S WCI  -3
SIOUX LOOKOUT  FLURRIES  -4  -8  84 N2        30.35F
TORONTO        CLOUDY    21  14  73 NW3       30.32S
BIG TROUT LK   CLOUDY    -6  -9  84 NW10      30.37S WCI -23
PICKLE LAKE    NOT AVBL
DRYDEN         CLEAR     -6  -9  84 W6        30.37S WCI -18
KENORA         FLURRIES  -6  -9  84 NW3       30.40S
$$
                *** MANITOBA***

CITY           SKY/WX    TMP DP  RH WIND       PRES   REMARKS
BRANDON        CLEAR    -18 -24  76 W6        30.47F WCI -33
DAUPHIN        CLEAR    -22 -27  76 SW7       30.50F WCI -39
ISLAND LAKE    NOT AVBL
PILOT MOUND      N/A    -22 -27  76 SW3         N/A
THE PAS        FLURRIES  -9 -15  77 CALM      30.47F
THOMPSON       CLOUDY    -6 -11  77 SW3       30.44F
WINNIPEG       MOCLDY   -11 -17  77 W6        30.53S WCI -25
LYNN LAKE      FLURRIES  -6  -8  92 W5        30.36F WCI -17
CHURCHILL      PTCLDY   -11 -17  77 W15       30.35S WCI -34
GILLAM         CLEAR    -11 -17  77 W9        30.42S WCI -29
$$
                ***SASKATCHEWAN***

CITY           SKY/WX    TMP DP  RH WIND       PRES   REMARKS
ESTEVAN        PTCLDY   -22 -27  76 SW5       30.41S WCI -36
KINDERSLEY     PTCLDY   -13 -17  84 E13       30.21F WCI -34
LLOYDMINSTER   CLEAR    -17 -22  76 S3        30.25F
PRINCE ALBERT  CRYSTALS -20 -27  69 CALM      30.41F VSB 1
REGINA         PTCLDY   -17 -22  76 SE9       30.37F WCI -36
YORKTON        CLEAR    -15 -20  76 SW3       30.40F   C1F1C2F2C3F3C4F4C5F5C6F6C7F7C8F8C9F9CaFaCbFbCcFcCdFdCe!


USA.gov is the U.S. government's official web portal to all federal, state and local government web resources and services.